Tracking 28790 objects as of 19-Apr-2024
HD Live streaming from Space Station
objects crossing your sky now

COSMOS 1328

Track COSMOS 1328 now!
10-day predictions
COSMOS 1328 is classified as:


NORAD ID: 12987
Int'l Code: 1981-117A
Perigee: 510.5 km
Apogee: 535.3 km
Inclination: 82.5 °
Period: 94.9 minutes
Semi major axis: 6893 km
RCS: 9.2433 m2 (large)
Launch date: December 3, 1981
Source: Commonwealth of Independent States (former USSR) (CIS)
Launch site: PLESETSK MISSILE AND SPACE COMPLEX (PKMTR)
Your satellite tracking list
Your tracking list is empty




NASA's NSSDC Master Catalog

Two Line Element Set (TLE):
1 12987U 81117A   24109.68177832  .00011183  00000-0  56668-3 0  9991
2 12987  82.4976 322.3893 0017981  85.8055 274.5232 15.16710047308886
Source of the keplerian elements: AFSPC